Regional Weather Roundup
Issued by NWS Green Bay, WI

Home | Current Version | Previous Version | Graphics & Text | Print | Product List | Glossary Off
Versions: 1 2 3 4 5 6 7 8 9 10 11 12 13 14 15 16 17 18 19 20 21 22 23 24 25 26 27 28 29 30 31 32 33 34 35 36 37 38 39 40 41 42 43 44 45 46 47 48 49 50

000
ASUS43 KGRB 190500
RWRGRB

NORTH-CENTRAL AND NORTHEAST WISCONSIN REGIONAL WEATHER ROUNDUP
NATIONAL WEATHER SERVICE GREEN BAY WI
1100 PM CST THU JAN 18 2018

WIZ005-009-010>012-018-019-190600-
NORTH CENTRAL WISCONSIN

CITY           SKY/WX    TMP DP  RH WIND       PRES   REMARKS
IRONWOOD       FAIR      27  22  81 SW7       29.70S
MANITOWISH WTR NOT AVBL
ARBOR VITAE    NOT AVBL
EAGLE RIVER    FAIR      11  10  94 CALM      29.70F
LAND O LAKES   NOT AVBL
RHINELANDER    FAIR      26  21  81 SW8       29.72S
PHILLIPS       FAIR      22  20  93 SW5       29.72F
ANTIGO         NOT AVBL
TOMAHAWK       NOT AVBL
MERRILL        FAIR      19  18  96 CALM      29.76R
$$

WIZ013-073-190600-
NORTHEAST WISCONSIN

CITY           SKY/WX    TMP DP  RH WIND       PRES   REMARKS
IRON MOUNTAIN  FAIR      21  18  88 CALM      29.72F
MARINETTE      FAIR      25  20  81 SW7       29.78F
$$

WIZ017-030-035>037-045-190600-
CENTRAL WISCONSIN

CITY           SKY/WX    TMP DP  RH WIND       PRES   REMARKS
MEDFORD        NOT AVBL
WAUSAU         FAIR      26  20  77 SW3       29.76S
MOSINEE        NOT AVBL
MARSHFIELD     FAIR      27  20  75 SW8       29.77R
WISC RAPIDS    FAIR      26  17  68 SW9       29.81F
STEVENS POINT  NOT AVBL
WAUPACA        NOT AVBL
SHAWANO        FAIR      28  20  75 CALM      29.78F
CLINTONVILLE   NOT AVBL
WAUTOMA        FAIR      25  18  74 S6        29.83F
$$

WIZ038-039-048-051-190600-
FOX VALLEY

CITY           SKY/WX    TMP DP  RH WIND       PRES   REMARKS
NWS GREEN BAY  FAIR      23  16  74 S8        29.81F
APPLETON       PTCLDY    25  16  68 SW10      29.80F
OSHKOSH        FAIR      23  17  78 SW8       29.83F
FOND DU LAC    FAIR      26  17  68 SW9       29.84F
$$

WIZ022-050-052-190600-
EAST CENTRAL WISCONSIN

CITY           SKY/WX    TMP DP  RH WIND       PRES   REMARKS
EPHRAIM        NOT AVBL
WASHINGTON ISL NOT AVBL
STURGEON BAY   FAIR      28  20  71 SW14      29.79F
MANITOWOC      FAIR      29  19  66 SW9       29.83F
SHEBOYGAN      FAIR      28  19  69 SW10      29.84F
$$

LMZ563-521-522-541>543-190600-
LAKESHORE

STATION/POSITION TIME  TEMP    WIND        PRES    VSBY  WAVE
                       AIR SEA DIR/SP/G                  HT/PER
                 (UTC) (F)     (DEG/KT/KT) (MB)    (MI)  (FT/S)
SHEBOYGAN LKSHOR 0400   30     240/ 12/ 15 1011.6S
KEWAUNEE LKSHORE 0430   28     250/  6/ 11 1009.0F
NORTHPORT PIER   0440   30     240/ 15/ 30 1008.5F
SISTER BAY LKSHO 0420   29     230/ 10/ 11   N/A
MENOMINEE LKSHOR 0430   26     210/  8/ 12 1008.5F
$$




USA.gov is the U.S. government's official web portal to all federal, state and local government web resources and services.